[[{"header":{"parameterUnit":"m.s-1","parameterCategory":1,"la1":30.2991,"la2":30.254,"lo1":-89.0895,"lo2":-89.0444,"dy":0.0017,"dx":0.0017,"nx":28,"ny":28,"refTime":"2024-08-06T21:00:00:Z","depth":0,"parameterNumber":2,"parameterNumberName":"U-component_of_WINDS"},"data":[0,0,0,0,0,0,0,0,0,0,0,0,0,0,0,0,0,0,0,0,0,0,0,0,0,0,0,0,0,0,0,0,0,0,0,0,0,0,0,0,0,0,0,0,0,0,0,0,0,0,0,0,0,0,0,0,0,0,2.9996,2.9996,0,3.004,3.004,3.0041,2.9982,2.998,2.9978,2.9976,3.002,3.0023,3.0026,0,0,0,0,0,0,0,0,0,0,0,0,0,2.9862,2.9865,2.9996,2.9996,2.9997,3.004,3.004,3.0041,2.9982,2.998,2.9977,2.9975,3.0019,3.0022,3.0026,0,0,0,0,0,0,0,0,0,0,0,0,0,2.9914,2.9865,2.9996,2.9973,2.9971,3.0039,3.004,3.0041,2.9983,2.9979,2.9976,2.9973,3.0018,3.0022,3.0027,3.0119,0,0,3.0041,3.0043,0,0,0,0,0,0,0,0,2.9911,2.9919,2.9976,2.9974,2.9973,3.0002,3.0009,3.0067,2.9983,2.9978,2.9975,2.9972,3.0016,3.0021,3.0036,3.0121,3.0123,3.0042,3.0044,3.0047,3.0048,0,0,0,0,0,0,0,2.9908,2.9917,3.0013,2.9976,2.9975,2.996,2.9964,3.002,3.0015,2.9978,2.9974,2.998,3.0015,3.0032,3.0037,3.0124,3.0041,3.0046,3.0049,3.005,3.029,3.0293,0,0,0,0,0,0,2.9907,2.9914,3.0012,3.0014,2.9934,2.9965,2.997,2.9996,3.0014,3.0013,2.9983,2.9977,3.0025,3.0031,3.0038,3.015,3.0046,3.0051,3.0054,3.0286,3.0291,3.0295,0,0,0,0,0,0,2.9904,2.9916,3.001,2.9963,2.9974,2.9971,3.0001,2.9998,3.0015,3.0017,3.0016,3.0001,3.0023,3.0031,3.01,3.015,3.0053,3.0057,3.0282,3.0288,3.0293,3.0372,0,0,0,0,0,0,2.9901,2.9915,2.995,2.9965,2.9977,3.0071,3.0004,3.0001,3.0023,3.0017,3.0034,3.0034,3.0021,3.0094,3.0105,3.0155,3.0061,3.0278,3.0285,3.0291,3.0365,3.038,3.0392,0,0,0,0,0,2.9896,2.997,2.9953,2.9965,3.0021,3.0074,3.0081,3.0066,3.0028,3.0063,3.0065,3.0033,3.0143,3.0101,3.0113,3.0166,3.0275,3.0283,3.029,3.0359,3.0377,3.0392,0,0,0,0,0,0,2.9962,2.9972,2.9952,3.0033,3.0054,3.0064,3.0108,3.0084,3.0116,3.0108,3.0087,3.0091,3.0165,3.0172,3.0125,3.0257,3.0202,3.0213,3.0251,3.0267,3.028,3.0278,3.0065,0,0,0,0,0,2.9986,3.0029,3.0035,3.0106,3.0117,3.0112,3.0134,3.012,3.014,3.0149,3.0155,3.0176,3.0215,3.0241,3.0277,3.0366,3.037,3.0408,3.0421,3.0432,3.0442,3.0492,3.0509,3.0321,3.0321,3.032,0,0,3.0036,3.0046,3.0075,3.012,3.0134,3.0179,3.0119,3.0169,3.0203,3.0156,3.0222,3.0228,3.0249,3.0329,3.0365,3.0337,3.0495,3.0442,3.0451,3.0455,3.0502,3.052,3.0535,3.0326,3.0325,3.0324,0,0,3.015,3.0162,3.0224,3.0239,3.0262,3.0258,3.0273,3.0288,3.029,3.0356,3.0322,3.0362,3.0429,3.0447,3.0465,3.0588,3.0561,3.06,3.0671,3.0719,3.0734,3.0747,3.0793,3.081,3.061,3.061,3.061,0,3.0209,3.0277,3.0258,3.0312,3.0333,3.0294,3.0357,3.0372,3.0405,3.0421,3.039,3.0476,3.0487,3.0571,3.0602,3.0617,3.0634,3.0599,3.0734,3.0747,3.0758,3.0802,3.0819,3.0615,3.0614,3.0614,3.0613,0,3.0349,3.0397,3.0444,3.0478,3.0504,3.0562,3.0553,3.0582,3.0567,3.0566,3.0635,3.0647,3.0686,3.0705,3.0689,3.0788,3.077,3.0737,3.0681,3.0782,3.0822,3.0839,3.0622,3.062,3.0619,3.0617,0,0,3.0506,3.0531,3.0549,3.0565,3.0587,3.0623,3.068,3.0718,3.0745,3.0769,3.0817,3.0876,3.0845,3.0866,3.0852,3.0894,3.0994,3.0855,3.0856,3.0882,3.1105,3.1132,3.1151,3.0975,3.0978,3.0981,3.1104,0,3.0623,3.0721,3.0707,3.0802,3.0846,3.081,3.0859,3.0879,3.088,3.0918,3.0919,3.0962,3.0918,3.093,3.097,3.0973,3.1039,3.0964,3.1021,3.1023,3.1018,3.1172,3.12,3.1316,3.112,3.1122,3.1124,0,3.0771,3.0803,3.0902,3.092,3.0938,3.0983,3.1018,3.1054,3.1076,3.1074,3.1098,3.1077,3.1135,3.1078,3.1157,3.1107,3.1129,3.1134,3.1138,3.1144,3.1081,3.1184,3.1352,3.137,3.1149,3.1147,3.1145,0,3.0879,3.0945,3.1014,3.1028,3.105,3.1083,3.1093,3.1112,3.1137,3.1168,3.1184,3.1221,3.1241,3.1271,3.1261,3.122,3.1343,3.1285,3.1344,3.1345,3.1373,3.1372,3.1549,3.1385,3.1384,3.1384,3.1384,0,3.1011,3.1074,3.1063,3.1105,3.1175,3.1159,3.1228,3.1234,3.1252,3.1295,3.1265,3.1307,3.129,3.1331,3.1323,3.1392,3.1401,3.1401,3.1399,3.1405,3.1405,3.1421,3.1413,3.1389,3.1388,3.1387,3.1386,0,3.1143,3.1138,3.1211,3.1226,3.1231,3.1282,3.1295,3.1336,3.1335,3.139,3.1402,3.1401,3.1448,3.1441,3.1492,3.1487,3.1573,3.1559,3.1566,3.1563,3.1624,3.1619,3.1819,3.1845,3.1662,3.1664,3.1666,0,3.1229,3.1276,3.1297,3.1324,3.1338,3.1382,3.1407,3.1393,3.1421,3.1451,3.1488,3.1532,3.1566,3.1643,3.1647,3.1686,3.1675,3.1742,3.1681,3.1686,3.1678,3.1676,3.1682,3.1755,3.1757,3.1758,3.176,0,3.1382,3.1377,3.1415,3.1454,3.1486,3.1515,3.1541,3.1565,3.1553,3.1586,3.1634,3.1661,3.1714,3.1759,3.1796,3.1807,3.1783,3.1779,3.1795,3.1803,3.1805,3.1807,3.1601,3.1775,3.1773,3.1772,3.1771,3.1771,3.1494,3.1536,3.1558,3.1602,3.162,3.1646,3.1685,3.169,3.1729,3.1772,3.1761,3.1816,3.1838,3.1886,3.1901,3.1944,3.1919,3.1942,3.1948,3.1955,3.1963,3.1797,3.195,3.195,3.1949,3.1949,3.1949,0,3.1648,3.166,3.1701,3.1739,3.1775,3.1748,3.1776,3.1807,3.1856,3.1879,3.1914,3.197,3.2013,3.2021,3.2063,3.2096,3.2086,3.2107,3.2106,3.2109,3.1982,3.1964,3.2115,3.2115,3.2115,3.2115,3.2115,3.2115,3.1732,3.1802,3.18,3.1879,3.1891,3.1945,3.1963,3.1987,3.2006,3.207,3.2106,3.2111,3.2128,3.2171,3.221,3.2211,3.2229,3.2256,3.2253,3.2134,3.2118,3.2102,3.2086,3.2259,3.226,3.2377,3.2378,3.2379]},{"header":{"parameterUnit":"m.s-1","parameterCategory":1,"la1":30.2991,"la2":30.254,"lo1":-89.0895,"lo2":-89.0444,"dy":0.0017,"dx":0.0017,"nx":28,"ny":28,"refTime":"2024-08-06T21:00:00:Z","depth":0,"parameterNumber":3,"parameterNumberName":"V-component_of_WINDS"},"data":[0,0,0,0,0,0,0,0,0,0,0,0,0,0,0,0,0,0,0,0,0,0,0,0,0,0,0,0,0,0,0,0,0,0,0,0,0,0,0,0,0,0,0,0,0,0,0,0,0,0,0,0,0,0,0,0,0,0,-2.5248,-2.5248,0,-2.5303,-2.5304,-2.5304,-2.5319,-2.5319,-2.5318,-2.5318,-2.5375,-2.5376,-2.5378,0,0,0,0,0,0,0,0,0,0,0,0,0,-2.5157,-2.5159,-2.5248,-2.5249,-2.5249,-2.5303,-2.5304,-2.5304,-2.5319,-2.5319,-2.5318,-2.5318,-2.5374,-2.5376,-2.5378,0,0,0,0,0,0,0,0,0,0,0,0,0,-2.5203,-2.5159,-2.5248,-2.5263,-2.5265,-2.5303,-2.5304,-2.5305,-2.5319,-2.5318,-2.5318,-2.5318,-2.5373,-2.5376,-2.5379,-2.5405,0,0,-2.5387,-2.5388,0,0,0,0,0,0,0,0,-2.52,-2.5206,-2.526,-2.5262,-2.5264,-2.5304,-2.5293,-2.5338,-2.5319,-2.5298,-2.5318,-2.5317,-2.5351,-2.5356,-2.5367,-2.5408,-2.5411,-2.5387,-2.5389,-2.539,-2.5391,0,0,0,0,0,0,0,-2.5197,-2.5204,-2.527,-2.5261,-2.5263,-2.5268,-2.5274,-2.5301,-2.5327,-2.53,-2.5301,-2.5308,-2.5352,-2.5365,-2.5369,-2.5411,-2.5387,-2.539,-2.5391,-2.5392,-2.548,-2.548,0,0,0,0,0,0,-2.5191,-2.5201,-2.5268,-2.5271,-2.523,-2.527,-2.5276,-2.5291,-2.5327,-2.5332,-2.5308,-2.5308,-2.536,-2.5366,-2.5371,-2.5406,-2.539,-2.5393,-2.5394,-2.5479,-2.548,-2.5481,0,0,0,0,0,0,-2.5189,-2.5197,-2.5266,-2.5237,-2.5246,-2.5272,-2.5289,-2.5293,-2.5305,-2.5333,-2.5338,-2.5316,-2.536,-2.5367,-2.5397,-2.5408,-2.5394,-2.5396,-2.5478,-2.5479,-2.548,-2.5475,0,0,0,0,0,0,-2.5186,-2.5196,-2.5206,-2.5237,-2.5247,-2.529,-2.5289,-2.5294,-2.531,-2.531,-2.5341,-2.5346,-2.536,-2.5393,-2.54,-2.5411,-2.5398,-2.5477,-2.5479,-2.548,-2.5474,-2.5476,-2.5477,0,0,0,0,0,-2.5183,-2.5202,-2.5206,-2.5214,-2.526,-2.5291,-2.5297,-2.5313,-2.531,-2.5321,-2.5339,-2.5345,-2.5406,-2.5396,-2.5404,-2.5416,-2.5477,-2.5478,-2.548,-2.5474,-2.5476,-2.5477,0,0,0,0,0,0,-2.5171,-2.5206,-2.5211,-2.524,-2.5263,-2.5293,-2.5307,-2.5314,-2.5338,-2.5337,-2.5357,-2.5364,-2.5393,-2.5408,-2.5396,-2.5446,-2.5442,-2.5445,-2.5434,-2.5436,-2.5437,-2.5433,-2.5401,0,0,0,0,0,-2.5171,-2.5193,-2.5223,-2.5246,-2.5257,-2.528,-2.5294,-2.5305,-2.5329,-2.5338,-2.5359,-2.5382,-2.5407,-2.5422,-2.5447,-2.5477,-2.5485,-2.549,-2.5491,-2.5492,-2.5494,-2.5514,-2.5516,-2.5486,-2.5486,-2.5486,0,0,-2.5173,-2.5195,-2.5207,-2.5244,-2.5263,-2.5286,-2.5288,-2.5312,-2.5329,-2.5342,-2.5372,-2.5388,-2.5416,-2.5447,-2.5461,-2.546,-2.5505,-2.5494,-2.5495,-2.5496,-2.5515,-2.5518,-2.5521,-2.5487,-2.5487,-2.5486,0,0,-2.5187,-2.5206,-2.5227,-2.5247,-2.5275,-2.5291,-2.5296,-2.5327,-2.5338,-2.5369,-2.5379,-2.5401,-2.5443,-2.5462,-2.5478,-2.5503,-2.551,-2.5511,-2.5517,-2.5535,-2.5538,-2.554,-2.555,-2.5553,-2.5513,-2.5513,-2.5513,0,-2.5185,-2.522,-2.5238,-2.5262,-2.5278,-2.5292,-2.5315,-2.5333,-2.5368,-2.5379,-2.5377,-2.5432,-2.5451,-2.5488,-2.5494,-2.5506,-2.5514,-2.5506,-2.5536,-2.5539,-2.5541,-2.555,-2.5554,-2.5513,-2.5513,-2.5513,-2.5513,0,-2.5216,-2.5241,-2.5255,-2.5289,-2.5308,-2.5331,-2.5353,-2.537,-2.538,-2.5396,-2.5429,-2.5453,-2.5483,-2.5493,-2.5502,-2.5532,-2.553,-2.5532,-2.5528,-2.5543,-2.5553,-2.5556,-2.5513,-2.5513,-2.5513,-2.5513,0,0,-2.5222,-2.5268,-2.5273,-2.5289,-2.5323,-2.5342,-2.5368,-2.5397,-2.5412,-2.5436,-2.5458,-2.5495,-2.5498,-2.5515,-2.5528,-2.5544,-2.5564,-2.5544,-2.5545,-2.5547,-2.5599,-2.5597,-2.5601,-2.5569,-2.557,-2.557,-2.5597,0,-2.5241,-2.5285,-2.5303,-2.534,-2.5363,-2.5378,-2.54,-2.5424,-2.5441,-2.5464,-2.5483,-2.5508,-2.551,-2.5521,-2.5538,-2.5558,-2.5574,-2.5556,-2.559,-2.5591,-2.5582,-2.5605,-2.5603,-2.5626,-2.56,-2.5601,-2.5601,0,-2.5267,-2.5293,-2.5332,-2.5365,-2.5375,-2.5395,-2.5425,-2.5447,-2.5475,-2.5486,-2.5507,-2.5519,-2.5548,-2.5543,-2.5583,-2.557,-2.5586,-2.5598,-2.5599,-2.5602,-2.5596,-2.5609,-2.5634,-2.5637,-2.5607,-2.5607,-2.5606,0,-2.5268,-2.5312,-2.5342,-2.5355,-2.5395,-2.5408,-2.5425,-2.5453,-2.5471,-2.5497,-2.5509,-2.5539,-2.5555,-2.5578,-2.5599,-2.5594,-2.5637,-2.5634,-2.5648,-2.5647,-2.5655,-2.5654,-2.5683,-2.5666,-2.5666,-2.5666,-2.5666,0,-2.5287,-2.531,-2.5343,-2.5361,-2.5388,-2.541,-2.5436,-2.5455,-2.548,-2.5502,-2.5518,-2.5539,-2.5565,-2.559,-2.5606,-2.5637,-2.5644,-2.5655,-2.5659,-2.5653,-2.5652,-2.5663,-2.5661,-2.5667,-2.5667,-2.5666,-2.5666,0,-2.5291,-2.5314,-2.5347,-2.5382,-2.5392,-2.5411,-2.5441,-2.546,-2.5479,-2.5507,-2.5515,-2.5544,-2.5575,-2.5598,-2.5637,-2.5648,-2.5681,-2.5686,-2.5672,-2.5674,-2.5686,-2.5685,-2.5722,-2.5728,-2.5708,-2.5708,-2.5708,0,-2.5301,-2.5319,-2.5357,-2.5374,-2.5391,-2.5417,-2.5435,-2.5459,-2.5477,-2.5513,-2.5527,-2.5559,-2.5585,-2.5633,-2.5658,-2.5689,-2.5694,-2.5705,-2.5699,-2.5693,-2.5695,-2.5693,-2.5695,-2.5706,-2.5706,-2.5706,-2.5706,0,-2.5316,-2.5327,-2.5353,-2.5384,-2.5406,-2.5431,-2.5457,-2.5469,-2.5498,-2.5518,-2.555,-2.557,-2.5611,-2.5643,-2.5677,-2.5695,-2.5706,-2.5708,-2.5713,-2.5707,-2.5698,-2.5703,-2.5674,-2.5707,-2.5707,-2.5707,-2.5707,-2.5707,-2.5324,-2.5342,-2.5372,-2.5401,-2.5423,-2.5447,-2.5467,-2.5489,-2.5515,-2.555,-2.5563,-2.5596,-2.5626,-2.5672,-2.5692,-2.5718,-2.5718,-2.5725,-2.5727,-2.5728,-2.5728,-2.5695,-2.5724,-2.5724,-2.5725,-2.5725,-2.5725,0,-2.534,-2.5361,-2.5387,-2.5423,-2.5447,-2.5456,-2.5485,-2.5504,-2.5533,-2.556,-2.5586,-2.5623,-2.5655,-2.5683,-2.5716,-2.5732,-2.5738,-2.574,-2.5739,-2.5743,-2.5725,-2.5718,-2.5735,-2.5735,-2.5735,-2.5735,-2.5735,-2.5735,-2.5351,-2.5382,-2.5397,-2.544,-2.5461,-2.5493,-2.5509,-2.5532,-2.5554,-2.5595,-2.5622,-2.564,-2.5669,-2.5704,-2.5734,-2.5742,-2.5753,-2.5754,-2.5763,-2.5746,-2.5744,-2.5743,-2.5736,-2.5757,-2.5757,-2.5779,-2.5779,-2.5779]}]]